Regional Weather Roundup
Issued by NWS

Home | Current Version | Previous Version | Text Only | Print | Product List | Glossary On
Versions: 1 2 3 4 5 6 7 8 9 10 11 12 13 14 15 16 17 18 19 20 21 22 23 24 25 26 27 28 29 30 31 32 33 34 35 36 37 38 39 40 41 42 43 44 45 46 47 48 49 50
000
ASUS43 KOAX 060610
RWRNE

WEATHER ROUNDUP FOR NEBRASKA
NATIONAL WEATHER SERVICE OMAHA NE
1200 AM CST SAT FEB 06 2016

NOTES: SATELLITE DATA IS BEING USED TO AUGMENT CLOUD COVER ABOVE
       12000 FEET.
       "FAIR" INDICATES FEW OR NO CLOUDS BELOW 12,000 FEET WITH NO
       SIGNIFICANT WEATHER AND/OR OBSTRUCTIONS TO VISIBILITY.

  * THESE STATIONS DO NOT REPORT WEATHER SUCH AS RAIN...SNOW OR FOG.

NEZ001>004-019>022-054>056-060700-
NEBRASKA PANHANDLE

CITY           SKY/WX    TMP DP  RH WIND       PRES   REMARKS
SCOTTSBLUFF    CLOUDY    13   8  81 N6        30.24F WCI   4
6HR MIN TEMP:  12; 6HR MAX TEMP:  31;

ALLIANCE       CLOUDY    13   7  77 W14       30.21F WCI  -2
6HR MIN TEMP:  11; 6HR MAX TEMP:  31;

CHADRON        CLOUDY    21  13  71 SW10      30.22S WCI  10
6HR MIN TEMP:  19; 6HR MAX TEMP:  33;

KIMBALL        CLOUDY    14   7  75 W12       30.24S WCI   0
SIDNEY         CLOUDY    18  10  71 W15       30.25F WCI   4
6HR MIN TEMP:  16; 6HR MAX TEMP:  27;

$$

NEZ057>060-069>072-079>082-060700-
SOUTHWEST NEBRASKA

CITY           SKY/WX    TMP DP  RH WIND       PRES   REMARKS
NORTH PLATTE   CLOUDY    12  10  92 NW5       30.27R FOG     WCI   4
6HR MIN TEMP:  14; 6HR MAX TEMP:  35;

IMPERIAL       CLEAR     20  12  71 NW9       30.28S WCI   9
6HR MIN TEMP:  20; 6HR MAX TEMP:  32;

LEXINGTON      CLEAR     18  15  88 W5        30.27S WCI  11
MCCOOK         CLEAR     20  15  81 W10       30.29S WCI   9
6HR MIN TEMP:  20; 6HR MAX TEMP:  33;

OGALLALA       CLOUDY    18  10  72 SW7       30.27S WCI   8
$$

NEZ005>010-023>029-035>040-094-060700-
NORTH CENTRAL NEBRASKA

CITY           SKY/WX    TMP DP  RH WIND       PRES   REMARKS
VALENTINE      CLEAR     23  20  88 W9        30.20S WCI  13
6HR MIN TEMP:  20; 6HR MAX TEMP:  31;

AINSWORTH      CLEAR     24  21  88 SW8       30.21S WCI  15
BROKEN BOW     CLEAR     15  13  91 NW3       30.25R
6HR MIN TEMP:  13; 6HR MAX TEMP:  35;

O`NEILL        CLEAR     24  23  94 W6        30.22S WCI  17
ORD            CLEAR     22  19  89 SW5       30.24S WCI  16
6HR MIN TEMP:  22; 6HR MAX TEMP:  35;

THEDFORD       CLEAR     20  18  92 W3        30.23S
$$

NEZ041-046>049-061>064-073>077-083>087-060700-
SOUTH CENTRAL NEBRASKA

CITY           SKY/WX    TMP DP  RH WIND       PRES   REMARKS
GRAND ISLAND   PTCLDY    31  25  78 NW7       30.26F WCI  24
6HR MIN TEMP:  31; 6HR MAX TEMP:  37;

AURORA         PTCLDY    26  25  99 NW7       30.25F WCI  18
HASTINGS       CLEAR     27  21  78 NW8       30.25S WCI  19
6HR MIN TEMP:  27; 6HR MAX TEMP:  37;

HEBRON         MOCLDY    27  26  96 NW3       30.28R
HOLDREGE       CLEAR     21  18  89 W7        30.27S WCI  12
KEARNEY *      CLEAR     27 -20  12 NW6       30.27S WCI  20
YORK           PTCLDY    27  27 100 N8        30.26S WCI  18
$$

NEZ011>018-030>034-042>045-060700-
NORTHEAST NEBRASKA

CITY           SKY/WX    TMP DP  RH WIND       PRES   REMARKS
NORFOLK        CLEAR     25  23  92 W5        30.23S WCI  19
6HR MIN TEMP:  24; 6HR MAX TEMP:  36;

ALBION         PTCLDY    24  23  93 CALM      30.25R FOG
BLAIR          CLOUDY    30  28  93 NW5       30.24R WCI  25
COLUMBUS *     CLEAR     27  18  69 NW5       30.25F WCI  21
FREMONT        CLOUDY    33  31  91 NW8       30.26R WCI  26
TEKAMAH        CLOUDY    30  27  88 NW7       30.25R WCI  23
6HR MIN TEMP:  23; 6HR MAX TEMP:  30; 6HR PCP: TRACE;

WAYNE          CLEAR     23  22  97 CALM      30.24S
$$

NEZ050>053-065>068-078-088>093-060700-
SOUTHEAST NEBRASKA

CITY           SKY/WX    TMP DP  RH WIND       PRES   REMARKS
LINCOLN        CLOUDY    34  31  88 NW5       30.28R WCI  30
6HR MIN TEMP:  30; 6HR MAX TEMP:  34; 6HR PCP: TRACE;

OMAHA EPPLEY   MOCLDY    28  28 100 CALM      30.26R FOG
6HR MIN TEMP:  26; 6HR MAX TEMP:  31; 6HR PCP: TRACE;

BEATRICE       MOCLDY    30  28  92 W5        30.27R WCI  25
FALLS CITY     CLEAR     29  23  78 CALM      30.26S
6HR MIN TEMP:  29; 6HR MAX TEMP:  36;

NEBRASKA CITY  CLOUDY    32  31  97 W9        30.25S WCI  24
PLATTSMOUTH    CLOUDY    31  28  90 W5        30.25R WCI  26
$$

NEZ044-045-051>053-067-060700-
OMAHA AREA

CITY           SKY/WX    TMP DP  RH WIND       PRES   REMARKS
OMAHA EPPLEY   MOCLDY    28  28 100 CALM      30.26R FOG
6HR MIN TEMP:  26; 6HR MAX TEMP:  31; 6HR PCP: TRACE;

BLAIR          CLOUDY    30  28  93 NW5       30.24R WCI  25
FREMONT        CLOUDY    33  31  91 NW8       30.26R WCI  26
OFFUTT AFB     CLOUDY    28  28  99 W1        30.25S FOG
PLATTSMOUTH    CLOUDY    31  28  90 W5        30.25R WCI  26
WAHOO          CLOUDY    34  32  93 CALM      30.26R
$$



USA.gov is the U.S. government's official web portal to all federal, state and local government web resources and services.